FW1602 Ippokrateios Politeia GR current weather conditions

sailwx.info

Wind from 001 at 2 knots gusting 3

Air temperature 8.3° C
Dewpoint 8.3° C

Last reported at 2019-Dec-08 01:29 UTC.
Time now 2019-Dec-08 02:27 UTC

Location: N 38°12' E 023°47'.
View on Google Maps.

See reports from other nearby stations

  
Tides and Currents Weather Stations Pressure Air Temp Water Temp Dewpoint Dewpoint Depression Visibility Wind Speed Wind Dir Waves Ship Positions
date/time (UTC)wind fromknots sea level pressurealtimeterstation pressurevisibilityair tempwater tempwave heightnotes
2019-Dec-08 01:29 001 2 gusting 3 8.3
2019-Dec-08 01:14 001 1 gusting 4 8.3
2019-Dec-08 00:59 001 2 gusting 3 8.3
2019-Dec-08 00:44 001 2 gusting 3 7.8
2019-Dec-08 00:29 001 3 gusting 3 7.8
2019-Dec-08 00:14 337 3 gusting 3 7.8
2019-Dec-07 23:59 292 2 gusting 3 7.8
2019-Dec-07 23:44 292 2 gusting 3 7.8
2019-Dec-07 23:29 292 2 gusting 3 8.3
2019-Dec-07 23:14 292 2 gusting 5 8.3
2019-Dec-07 22:59 292 2 gusting 4 7.8
2019-Dec-07 22:44 292 1 gusting 3 7.8
2019-Dec-07 22:29 292 0 gusting 2 7.8
2019-Dec-07 22:14 292 2 gusting 3 8.3
2019-Dec-07 21:59 292 1 gusting 3 8.3
2019-Dec-07 21:44 292 2 gusting 5 9.4
2019-Dec-07 21:29 292 2 gusting 3 9.4
2019-Dec-07 21:14 292 2 gusting 3 9.4
2019-Dec-07 20:59 292 3 gusting 3 9.4
2019-Dec-07 20:44 315 3 gusting 7 9.4
2019-Dec-07 20:29 001 1 gusting 3 8.9
2019-Dec-07 20:14 001 0 gusting 2 9.4
2019-Dec-07 19:59 001 1 gusting 2 9.4
2019-Dec-07 19:44 001 1 gusting 3 9.4
2019-Dec-07 19:29 001 2 gusting 3 9.4
2019-Dec-07 19:14 001 2 gusting 3 9.4
2019-Dec-07 18:59 001 2 gusting 4 10.0
2019-Dec-07 18:44 001 2 gusting 3 9.4
2019-Dec-07 18:29 001 1 gusting 3 9.4
2019-Dec-07 18:14 001 1 gusting 2 8.3
2019-Dec-07 17:59 001 0 gusting 2 6.7
2019-Dec-07 17:44 001 1 gusting 3 7.2
2019-Dec-07 17:29 001 7.8
2019-Dec-07 17:14 001 0 gusting 2 8.3
2019-Dec-07 16:44 001 2 gusting 3 10.6
2019-Dec-07 16:29 001 1 gusting 3 9.4
2019-Dec-07 16:14 001 1 gusting 3 9.4
2019-Dec-07 15:59 001 1 gusting 3 8.9
2019-Dec-07 15:44 001 1 gusting 3 8.9
2019-Dec-07 15:29 001 9.4
2019-Dec-07 15:14 001 1 gusting 3 10.0
2019-Dec-07 14:59 001 1 gusting 2 10.6
2019-Dec-07 14:44 090 1 gusting 3 11.7
2019-Dec-07 14:29 090 2 gusting 3 11.7
2019-Dec-07 14:14 307 1 gusting 3 11.7
2019-Dec-07 13:59 302 1 gusting 2 12.8
2019-Dec-07 13:44 339 2 gusting 5 12.8
2019-Dec-07 13:29 001 0 gusting 2 12.2
2019-Dec-07 13:14 001 1 gusting 2 12.8
2019-Dec-07 12:59 328 1 gusting 3 12.8
2019-Dec-07 12:44 049 1 gusting 3 13.3
2019-Dec-07 12:29 045 1 gusting 3 13.9
2019-Dec-07 12:14 025 2 gusting 5 13.9
2019-Dec-07 11:59 019 3 gusting 5 14.4
2019-Dec-07 11:44 287 2 gusting 5 15.0
2019-Dec-07 11:29 057 3 gusting 4 15.0
2019-Dec-07 11:14 135 2 gusting 3 14.4
2019-Dec-07 10:59 135 2 gusting 3 13.9
2019-Dec-07 10:44 181 2 gusting 5 14.4
2019-Dec-07 10:29 174 2 gusting 4 13.3
2019-Dec-07 10:14 292 2 gusting 3 12.2
2019-Dec-07 09:59 341 2 gusting 3 12.2
2019-Dec-07 09:44 345 1 gusting 4 11.7
2019-Dec-07 09:29 355 0 gusting 2 11.7
2019-Dec-07 09:14 351 0 gusting 1 11.1
2019-Dec-07 08:59 355 1 gusting 3 10.6
2019-Dec-07 08:44 352 0 gusting 2 10.6
2019-Dec-07 08:29 357 1 gusting 3 10.0
2019-Dec-07 08:14 350 0 gusting 1 10.0
2019-Dec-07 07:59 357 1 gusting 3 10.0
2019-Dec-07 07:44 354 0 gusting 3 10.0
2019-Dec-07 07:29 353 0 gusting 2 9.4
2019-Dec-07 07:14 001 1 gusting 3 8.9
2019-Dec-07 06:59 351 2 gusting 3 7.8
2019-Dec-07 06:44 001 1 gusting 3 6.7
2019-Dec-07 06:29 001 1 gusting 3 6.7
2019-Dec-07 06:14 357 2 gusting 3 5.6
2019-Dec-07 05:59 353 1 gusting 3 6.1
2019-Dec-07 05:44 001 2 gusting 3 5.6
2019-Dec-07 05:29 001 1 gusting 3 5.6
2019-Dec-07 05:14 001 2 gusting 3 5.0
2019-Dec-07 04:59 001 2 gusting 3 5.0
2019-Dec-07 04:44 001 3 gusting 5 5.0
2019-Dec-07 04:29 001 2 gusting 3 4.4
2019-Dec-07 04:14 001 2 gusting 3 4.4
2019-Dec-07 03:59 001 1 gusting 3 5.6
2019-Dec-07 03:29 001 1 gusting 2 5.0
2019-Dec-07 03:14 001 2 gusting 3 4.4
2019-Dec-07 02:59 001 2 gusting 3 3.9
2019-Dec-07 02:44 001 2 gusting 4 3.9
2019-Dec-07 02:29 001 2 gusting 4 3.3
2019-Dec-07 02:14 001 1 gusting 3 4.4
2019-Dec-07 01:59 001 2 gusting 3 4.4
2019-Dec-07 01:44 001 2 gusting 4 3.3
2019-Dec-07 01:29 001 2 gusting 3 3.9
2019-Dec-07 01:14 001 2 gusting 3 3.3
2019-Dec-07 00:59 001 1 gusting 2 3.9
2019-Dec-07 00:44 001 2 gusting 3 3.9
2019-Dec-07 00:29 001 2 gusting 4 3.9
2019-Dec-07 00:14 001 2 gusting 3 3.3
2019-Dec-06 23:59 001 1 gusting 3 4.4
2019-Dec-06 23:44 001 2 gusting 3 3.9
2019-Dec-06 23:29 001 1 gusting 3 3.9
2019-Dec-06 23:14 001 3 gusting 3 4.4
2019-Dec-06 22:59 001 2 gusting 3 4.4
2019-Dec-06 22:44 001 2 gusting 3 3.9
2019-Dec-06 22:29 001 1 gusting 3 3.9
2019-Dec-06 22:14 001 2 gusting 3 3.9
2019-Dec-06 21:59 001 1 gusting 2 4.4
2019-Dec-06 21:44 001 1 gusting 3 4.4
2019-Dec-06 21:29 001 2 gusting 3 3.9
2019-Dec-06 21:14 001 2 gusting 2 3.3
2019-Dec-06 20:59 001 2 gusting 4 3.3
2019-Dec-06 20:44 001 2 gusting 3 3.9
2019-Dec-06 20:29 001 1 gusting 2 3.9
2019-Dec-06 20:14 001 2 gusting 3 3.9
2019-Dec-06 19:59 001 2 gusting 3 3.9
2019-Dec-06 19:44 001 2 gusting 3 3.3
2019-Dec-06 19:29 001 2 gusting 3 3.9
2019-Dec-06 19:14 001 2 gusting 3 3.9
2019-Dec-06 18:59 001 2 gusting 3 4.4
2019-Dec-06 18:44 001 1 gusting 3 5.6
2019-Dec-06 18:29 001 1 gusting 3 5.0
2019-Dec-06 18:14 001 1 gusting 2 5.0
2019-Dec-06 17:59 001 1 gusting 3 5.6
2019-Dec-06 17:44 001 1 gusting 2 5.6
2019-Dec-06 17:29 001 1 gusting 3 5.6
2019-Dec-06 17:14 001 1 gusting 3 6.1
2019-Dec-06 16:59 001 2 gusting 3 5.6
2019-Dec-06 16:44 001 5.6
2019-Dec-06 16:29 001 2 gusting 3 5.6
2019-Dec-06 16:14 001 1 gusting 3 5.6
2019-Dec-06 15:59 001 2 gusting 3 5.6
2019-Dec-06 15:44 001 0 gusting 1 5.6
2019-Dec-06 15:29 001 0 gusting 2 6.1
2019-Dec-06 15:14 001 0 gusting 1 6.7
2019-Dec-06 14:59 001 1 gusting 3 6.7
2019-Dec-06 14:44 7.2
2019-Dec-06 14:29 001 0 gusting 2 7.8
2019-Dec-06 14:14 001 1 gusting 3 7.8
2019-Dec-06 13:59 001 2 gusting 5 8.3
2019-Dec-06 13:44 001 1 gusting 3 8.3
2019-Dec-06 13:29 001 1 gusting 3 8.3
2019-Dec-06 13:14 001 1 gusting 3 7.8
2019-Dec-06 12:59 001 2 gusting 4 8.3
2019-Dec-06 12:44 001 2 gusting 3 8.9
2019-Dec-06 12:29 181 2 gusting 3 9.4
2019-Dec-06 12:14 001 1 gusting 3 9.4
2019-Dec-06 11:59 001 2 gusting 3 9.4
2019-Dec-06 11:44 327 3 gusting 5 8.9
2019-Dec-06 11:29 001 2 gusting 4 9.4
2019-Dec-06 11:14 292 2 gusting 4 9.4
2019-Dec-06 10:59 325 2 gusting 4 9.4
2019-Dec-06 10:44 274 3 gusting 5 8.9
2019-Dec-06 10:29 343 2 gusting 5 8.3
2019-Dec-06 10:14 001 3 gusting 4 8.3
2019-Dec-06 09:59 314 3 gusting 5 8.3
2019-Dec-06 09:44 278 2 gusting 5 8.3
2019-Dec-06 09:29 248 2 gusting 5 8.3
2019-Dec-06 09:14 282 3 gusting 3 7.8
2019-Dec-06 08:59 311 3 gusting 7 7.8
2019-Dec-06 08:44 327 3 gusting 5 7.2
2019-Dec-06 08:29 345 2 gusting 3 7.2
2019-Dec-06 08:14 312 2 gusting 5 7.2
2019-Dec-06 07:59 314 2 gusting 3 7.8
2019-Dec-06 07:44 313 3 gusting 6 7.2
2019-Dec-06 07:29 313 2 gusting 5 7.2
2019-Dec-06 07:14 312 2 gusting 5 7.2
2019-Dec-06 06:59 301 1 gusting 2 6.7
2019-Dec-06 06:44 292 2 gusting 3 6.7
2019-Dec-06 06:29 303 2 gusting 3 6.1
2019-Dec-06 06:14 288 2 gusting 3 5.0
2019-Dec-06 05:59 001 1 gusting 3 4.4
2019-Dec-06 05:44 001 1 gusting 3 4.4
2019-Dec-06 05:29 352 2 gusting 3 5.0
2019-Dec-06 05:14 304 2 gusting 3 5.0
2019-Dec-06 04:59 293 1 gusting 5 5.6
2019-Dec-06 04:29 299 1 gusting 3 5.6
2019-Dec-06 04:14 293 2 gusting 3 5.0
2019-Dec-06 03:59 293 1 gusting 3 4.4
2019-Dec-06 03:29 303 1 gusting 3 3.9
2019-Dec-06 03:14 310 1 gusting 3 3.9
2019-Dec-06 02:59 312 1 gusting 3 3.9
2019-Dec-06 02:44 312 0 gusting 1 3.3
2019-Dec-06 02:29 312 1 gusting 3 3.9
2019-Dec-06 02:14 311 2 gusting 3 4.4